Lancaster, PA

5:49 AM EDT on June 29, 2017 (GMT -0400)
Lancaster

Weather History for KLNS - April, 2014

Change the Weather History Date:

Tuesday, April 29, 2014

  Actual Average Record
Temperature  
Mean Temperature 46 °F -  
Max Temperature 50 °F 68 °F 85 °F (1983)
Min Temperature 42 °F 43 °F 28 °F (1949)
Degree Days  
Heating Degree Days 19    
Moisture  
Dew Point 42 °F    
Average Humidity 88    
Maximum Humidity 93    
Minimum Humidity 74    
Precipitation  
Precipitation 0.00 in - - ()
Sea Level Pressure  
Sea Level Pressure 30.20 in    
Wind  
Wind Speed 11 mph (ESE)    
Max Wind Speed 21 mph    
Max Gust Speed 28 mph    
Visibility 6 miles    
Events Rain    
Averages and records for this station are not official NWS values.
T = Trace of Precipitation, MM = Missing Value Source: NWS Daily Summary

Daily Weather History Graph

Daily Weather History Graph

Search for Another Location

Airport or City:

Trip Planner

Search our weather history database for the weather conditions in past years. The results will help you decide how hot, cold, wet, or windy it might be!

Date:

Astronomy

Apr. 29, 2014 Rise Set
Actual Time 6:07 AM EDT 7:58 PM EDT
Civil Twilight 5:38 AM EDT 8:27 PM EDT
Nautical Twilight 5:02 AM EDT 9:03 PM EDT
Astronomical Twilight 4:24 AM EDT 9:41 PM EDT
Moon 6:24 AM EDT 8:36 PM EDT
Length of Visible Light 14h 49m
Length of Day
13h 50m
New Moon, 0% of the Moon is Illuminated
Apr 29
New Moon
May 6
First Quarter
May 14
Full
May 21
Last Quarter
May 28
New

Hourly Weather History & Observations

Time (EDT) Temp. Windchill Dew Point Humidity Pressure Visibility Wind Dir Wind Speed Gust Speed Precip Events Conditions
12:03 AM 48.9 °F - 46.9 °F 93% 30.08 in 8.0 mi ESE 3.5 mph - N/A   Overcast
12:19 AM 48.9 °F - 46.9 °F 93% 30.07 in 8.0 mi ESE 6.9 mph - N/A   Overcast
12:53 AM 50.0 °F - 46.9 °F 89% 30.09 in 7.0 mi SSE 3.5 mph - N/A   Overcast
1:53 AM 50.0 °F - 48.0 °F 93% 30.10 in 6.0 mi ESE 3.5 mph - N/A   Overcast
2:53 AM 48.9 °F - 46.9 °F 93% 30.08 in 8.0 mi SE 8.1 mph - N/A   Overcast
3:49 AM 48.2 °F - 46.4 °F 93% 30.10 in 6.0 mi SE 9.2 mph - N/A   Overcast
3:53 AM 48.9 °F - 46.0 °F 90% 30.11 in 7.0 mi SE 10.4 mph - N/A   Overcast
4:04 AM 48.9 °F - 46.0 °F 90% 30.11 in 7.0 mi ESE 9.2 mph - N/A   Overcast
4:53 AM 48.9 °F - 43.0 °F 80% 30.14 in 9.0 mi SE 12.7 mph - N/A   Overcast
5:53 AM 46.9 °F - 41.0 °F 80% 30.14 in 10.0 mi ESE 13.8 mph - N/A   Overcast
6:53 AM 46.9 °F - 39.9 °F 77% 30.16 in 10.0 mi ESE 13.8 mph - N/A   Overcast
7:53 AM 46.9 °F - 39.9 °F 77% 30.19 in 10.0 mi ESE 11.5 mph - N/A   Overcast
8:17 AM 48.0 °F - 41.0 °F 77% 30.19 in 10.0 mi ESE 11.5 mph - N/A   Overcast
8:43 AM 48.9 °F - 41.0 °F 74% 30.18 in 10.0 mi East 16.1 mph 21.9 mph N/A   Overcast
8:53 AM 48.0 °F - 41.0 °F 77% 30.19 in 10.0 mi ESE 15.0 mph - N/A   Overcast
9:53 AM 48.0 °F - 39.9 °F 74% 30.22 in 10.0 mi ESE 16.1 mph - N/A   Overcast
10:53 AM 46.9 °F - 41.0 °F 80% 30.25 in 5.0 mi East 15.0 mph - 0.00 in Rain Light Rain
11:53 AM 45.0 °F 37.4 °F 41.0 °F 86% 30.24 in 4.0 mi East 18.4 mph 25.3 mph N/A Rain Rain
12:53 PM 46.0 °F 38.8 °F 42.1 °F 86% 30.19 in 10.0 mi East 18.4 mph 26.5 mph 0.00 in   Overcast
1:53 PM 46.0 °F 38.3 °F 41.0 °F 83% 30.19 in 10.0 mi East 20.7 mph 27.6 mph 0.00 in   Overcast
2:53 PM 46.0 °F 38.5 °F 41.0 °F 83% 30.22 in 10.0 mi East 19.6 mph - 0.00 in Rain Light Rain
3:53 PM 45.0 °F 37.9 °F 42.1 °F 90% 30.22 in 6.0 mi East 16.1 mph - N/A Rain Light Rain
4:20 PM 45.0 °F 38.2 °F 42.1 °F 90% 30.23 in 3.0 mi East 15.0 mph - N/A Rain Light Rain
4:34 PM 45.0 °F 37.9 °F 42.1 °F 90% 30.21 in 1.8 mi East 16.1 mph 21.9 mph N/A Rain Heavy Rain
4:46 PM 45.0 °F 37.4 °F 42.1 °F 90% 30.19 in 3.0 mi East 18.4 mph - N/A Rain Light Rain
4:53 PM 45.0 °F 39.3 °F 42.1 °F 90% 30.22 in 4.0 mi East 11.5 mph - N/A Rain Light Rain
6:06 PM 44.1 °F 37.1 °F 42.1 °F 93% 30.22 in 2.5 mi East 15.0 mph - N/A Rain Rain
6:48 PM 44.6 °F 37.4 °F 42.8 °F 93% 30.22 in 5.0 mi East 16.1 mph - N/A Rain Light Rain
6:53 PM 44.1 °F 37.1 °F 42.1 °F 93% 30.23 in 6.0 mi East 15.0 mph - N/A Rain Light Rain
7:17 PM 44.1 °F 37.1 °F 42.1 °F 93% 30.23 in 2.0 mi East 15.0 mph - N/A Rain Rain
7:26 PM 44.1 °F 37.7 °F 42.1 °F 93% 30.24 in 6.0 mi East 12.7 mph - N/A Rain Light Rain
7:53 PM 44.1 °F 37.4 °F 41.0 °F 89% 30.26 in 9.0 mi East 13.8 mph - N/A Rain Light Rain
8:53 PM 43.0 °F 36.0 °F 41.0 °F 93% 30.27 in 5.0 mi East 13.8 mph - N/A   Overcast
9:48 PM 42.8 °F 35.1 °F 41.0 °F 93% 30.25 in 3.0 mi East 16.1 mph - N/A Rain Rain
9:53 PM 43.0 °F 35.1 °F 41.0 °F 93% 30.26 in 3.0 mi East 17.3 mph - N/A Rain Light Rain
10:27 PM 43.0 °F 35.7 °F 41.0 °F 93% 30.27 in 2.5 mi East 15.0 mph - N/A Rain Heavy Rain
10:36 PM 43.0 °F 35.4 °F 41.0 °F 93% 30.26 in 3.0 mi East 16.1 mph 23.0 mph N/A Rain Rain
10:53 PM 43.0 °F 36.8 °F 41.0 °F 93% 30.27 in 7.0 mi East 11.5 mph - N/A Rain Light Rain
11:27 PM 43.0 °F 36.4 °F 39.9 °F 89% 30.24 in 9.0 mi East 12.7 mph - N/A   Overcast
11:53 PM 43.0 °F 36.0 °F 39.9 °F 89% 30.27 in 6.0 mi East 13.8 mph - N/A Rain Rain